GW5740 Weather Reports


Display with metric or nautical units.
time (UTC)temp
F
wind
direction
speed
MPH
gust
MPH
rain 1hr
in
rain 24hr
in
rain mn
in
humidity
%
barometer
mb
20260510111308 53 198 2.0 3.0 0.00 0.00 0.00 81 1010.5
20260510110808 52 215 3.0 5.0 0.00 0.00 0.00 82 1010.5
20260510110308 52 198 1.0 2.0 0.00 0.00 0.00 83 1010.4
20260510105809 51 266 2.0 3.0 0.00 0.00 0.00 84 1010.4
20260510105308 51 206 2.0 2.0 0.00 0.00 0.00 86 1010.3
20260510104808 51 231 1.0 2.0 0.00 0.00 0.00 85 1010.2
20260510104309 51 278 1.0 2.0 0.00 0.00 0.00 87 1010.0
20260510103809 50 0 0.0 0.0 0.00 0.00 0.00 86 1010.0
20260510103308 50 0 0.0 0.0 0.00 0.00 0.00 85 1009.9
20260510102808 51 0 0.0 0.0 0.00 0.00 0.00 85 1009.9
20260510102308 51 0 0.0 0.0 0.00 0.00 0.00 84 1009.8
20260510101808 51 243 1.0 2.0 0.00 0.00 0.00 84 1009.9
20260510101308 51 275 0.0 0.0 0.00 0.00 0.00 84 1010.0
20260510100808 51 251 2.0 2.0 0.00 0.00 0.00 83 1009.8
20260510100308 50 271 3.0 3.0 0.00 0.00 0.00 85 1009.5
20260510095808 50 265 2.0 2.0 0.00 0.00 0.00 86 1009.3
20260510095309 50 275 1.0 1.0 0.00 0.00 0.00 86 1009.3
20260510094809 51 237 1.0 2.0 0.00 0.00 0.00 84 1009.3
20260510094308 51 232 1.0 2.0 0.00 0.00 0.00 84 1009.2
20260510093808 51 251 1.0 3.0 0.00 0.00 0.00 85 1009.2
20260510093308 51 219 0.0 1.0 0.00 0.00 0.00 83 1008.9
20260510092808 51 283 1.0 2.0 0.00 0.00 0.00 83 1008.9
20260510092308 51 240 0.0 0.0 0.00 0.00 0.00 83 1008.9
20260510091808 51 242 2.0 2.0 0.00 0.00 0.00 84 1008.8
20260510091308 51 195 0.0 2.0 0.00 0.00 0.00 84 1008.7
20260510090809 51 196 2.0 2.0 0.00 0.00 0.00 84 1008.7
20260510090309 51 224 0.0 1.0 0.00 0.00 0.00 85 1009.0
20260510085809 51 268 2.0 2.0 0.00 0.00 0.00 85 1009.2
20260510085308 51 273 1.0 1.0 0.00 0.00 0.00 84 1009.1
20260510084808 51 275 1.0 2.0 0.00 0.00 0.00 83 1009.1
20260510084309 52 250 2.0 2.0 0.00 0.00 0.00 83 1009.3
20260510083808 52 251 1.0 2.0 0.00 0.00 0.00 81 1009.2
20260510083309 52 202 2.0 2.0 0.00 0.00 0.00 81 1009.1
20260510082808 52 207 2.0 3.0 0.00 0.00 0.00 81 1009.0
20260510082308 52 282 4.0 5.0 0.00 0.00 0.00 81 1008.9
20260510081809 52 288 2.0 3.0 0.00 0.00 0.00 82 1008.4
20260510081310 52 149 1.0 2.0 0.00 0.00 0.00 82 1008.5
20260510080808 52 190 2.0 4.0 0.00 0.00 0.00 82 1008.8
20260510080309 52 188 4.0 7.0 0.00 0.00 0.00 83 1008.8
20260510075808 52 151 3.0 4.0 0.00 0.00 0.00 83 1009.0
20260510075310 52 197 5.0 6.0 0.00 0.00 0.00 83 1009.3
20260510074808 52 184 3.0 3.0 0.00 0.00 0.00 84 1009.5
20260510074308 51 172 1.0 2.0 0.00 0.00 0.00 84 1009.7
20260510073808 52 221 2.0 2.0 0.00 0.00 0.00 84 1009.7
20260510073308 51 219 4.0 6.0 0.00 0.00 0.00 84 1009.9
20260510072808 51 224 2.0 3.0 0.00 0.00 0.00 84 1010.0
20260510072308 52 224 1.0 2.0 0.00 0.00 0.00 84 1010.2
20260510071808 52 275 2.0 3.0 0.00 0.00 0.00 83 1010.2
20260510071308 52 201 2.0 3.0 0.00 0.00 0.00 83 1010.0
20260510070809 52 228 2.0 3.0 0.00 0.00 0.00 82 1009.9
20260510070308 52 270 1.0 2.0 0.00 0.00 0.00 83 1009.8
20260510065808 52 249 2.0 3.0 0.00 0.00 0.00 82 1009.8
20260510065308 52 215 2.0 4.0 0.00 0.00 0.00 82 1009.7
20260510064808 53 265 2.0 2.0 0.00 0.00 0.00 81 1009.6
20260510064309 53 219 2.0 4.0 0.00 0.00 0.00 80 1009.6
20260510063809 53 193 3.0 4.0 0.00 0.00 0.00 79 1009.5
20260510063309 53 189 4.0 4.0 0.00 0.00 0.00 79 1009.4
20260510062808 53 233 2.0 2.0 0.00 0.00 0.00 78 1009.3
20260510062308 53 204 2.0 3.0 0.00 0.00 0.00 78 1009.3
20260510061810 53 147 2.0 2.0 0.00 0.00 0.00 78 1009.3
20260510061308 53 211 0.0 0.0 0.00 0.00 0.00 78 1009.2
20260510060808 53 174 2.0 3.0 0.00 0.00 0.00 77 1009.5
20260510060308 53 198 3.0 4.0 0.00 0.00 0.00 77 1009.4
20260510055808 53 188 4.0 6.0 0.00 0.00 0.00 77 1009.4
20260510055308 53 243 6.0 8.0 0.00 0.00 0.00 77 1009.3
20260510054808 53 161 3.0 4.0 0.00 0.00 0.00 77 1009.3
20260510054308 53 223 4.0 7.0 0.00 0.00 0.00 77 1009.1
20260510053811 53 201 5.0 7.0 0.00 0.00 0.00 76 1009.2
20260510053310 53 210 4.0 5.0 0.00 0.00 0.00 77 1009.2
20260510052809 53 211 3.0 4.0 0.00 0.00 0.00 77 1009.3
20260510052310 53 208 4.0 6.0 0.00 0.00 0.00 77 1009.3
20260510051808 53 156 2.0 4.0 0.00 0.00 0.00 77 1009.2
20260510051308 53 195 4.0 5.0 0.00 0.00 0.00 77 1009.3
20260510050808 53 185 5.0 7.0 0.00 0.00 0.00 76 1009.2
20260510050310 53 190 4.0 5.0 0.00 0.00 0.00 77 1009.3
20260510045808 53 201 3.0 4.0 0.00 0.00 0.00 76 1009.4
20260510045308 53 226 6.0 8.0 0.00 0.00 0.00 76 1009.3
20260510044808 53 195 4.0 7.0 0.00 0.00 0.00 75 1009.3
20260510044309 53 158 4.0 6.0 0.00 0.00 0.00 75 1009.2
20260510043808 53 182 3.0 4.0 0.00 0.00 0.00 75 1009.1
20260510043308 53 174 4.0 5.0 0.00 0.00 0.00 75 1009.2
20260510042809 53 168 4.0 4.0 0.00 0.00 0.00 75 1009.2
20260510042309 53 185 6.0 6.0 0.00 0.00 0.00 76 1009.2
20260510041808 53 187 5.0 6.0 0.00 0.00 0.00 76 1009.3
20260510041308 53 203 4.0 4.0 0.00 0.00 0.00 75 1009.4
20260510040808 53 177 1.0 2.0 0.00 0.00 0.00 76 1009.5
20260510040309 53 183 3.0 4.0 0.00 0.00 0.00 75 1009.4
20260510035808 53 223 4.0 7.0 0.00 0.00 0.19 76 1009.4
20260510035308 53 139 2.0 4.0 0.00 0.00 0.19 75 1009.4
20260510034812 53 148 2.0 4.0 0.00 0.00 0.19 76 1009.2
20260510034309 53 162 2.0 2.0 0.00 0.00 0.19 76 1009.1
20260510033809 53 191 4.0 6.0 0.00 0.00 0.19 75 1009.3
20260510033308 53 205 4.0 5.0 0.00 0.00 0.19 76 1009.3
20260510032809 53 143 3.0 5.0 0.00 0.00 0.19 76 1009.3
20260510032309 53 169 3.0 4.0 0.00 0.00 0.19 76 1009.4
20260510031809 53 168 4.0 5.0 0.00 0.00 0.19 76 1009.4
20260510031308 53 152 2.0 4.0 0.00 0.00 0.19 76 1009.6
20260510030809 53 168 3.0 3.0 0.00 0.00 0.19 77 1009.6
20260510030308 53 171 2.0 3.0 0.00 0.00 0.19 76 1009.6
20260510025808 53 186 3.0 4.0 0.00 0.00 0.19 76 1009.6
20260510025308 53 188 4.0 5.0 0.00 0.00 0.19 76 1009.5
20260510024808 53 204 4.0 4.0 0.00 0.00 0.19 77 1009.5
20260510024308 53 163 2.0 3.0 0.00 0.00 0.19 77 1009.5
20260510023808 53 191 3.0 4.0 0.00 0.00 0.19 77 1009.4
20260510023308 53 175 3.0 3.0 0.00 0.00 0.19 77 1009.4
20260510022808 53 185 3.0 4.0 0.00 0.00 0.19 77 1009.4
20260510022308 52 132 3.0 4.0 0.00 0.00 0.19 77 1009.4
20260510021808 53 185 3.0 3.0 0.00 0.00 0.19 78 1009.6
20260510021308 53 201 2.0 2.0 0.00 0.00 0.19 77 1009.6
20260510020808 53 165 3.0 4.0 0.00 0.00 0.19 76 1009.5
20260510020309 53 173 3.0 4.0 0.00 0.00 0.19 76 1009.3
20260510015810 53 184 3.0 4.0 0.00 0.00 0.19 77 1009.3
20260510015309 53 159 2.0 4.0 0.00 0.00 0.19 78 1009.4
20260510014808 53 160 3.0 3.0 0.00 0.00 0.19 76 1009.5
20260510014308 53 181 4.0 4.0 0.00 0.00 0.19 75 1009.6
20260510013808 53 186 3.0 4.0 0.00 0.00 0.19 75 1009.6
20260510013309 53 193 2.0 2.0 0.00 0.00 0.19 75 1009.6
20260510012808 53 175 2.0 2.0 0.00 0.00 0.19 75 1009.6
20260510012308 53 76 0.0 1.0 0.00 0.00 0.19 75 1009.5
20260510011808 53 111 2.0 3.0 0.00 0.00 0.19 75 1009.3
20260510011308 53 175 2.0 2.0 0.00 0.00 0.19 75 1009.3
20260510010808 53 129 2.0 3.0 0.00 0.00 0.19 75 1009.4
20260510010309 53 168 2.0 2.0 0.00 0.00 0.19 76 1009.5
20260510005809 53 165 2.0 2.0 0.00 0.00 0.19 76 1009.5
20260510005308 53 183 2.0 2.0 0.00 0.00 0.19 76 1009.5
20260510004808 53 205 3.0 3.0 0.00 0.00 0.19 76 1009.4
20260510004308 53 133 1.0 2.0 0.00 0.00 0.19 77 1009.4
20260510003809 53 127 2.0 2.0 0.00 0.00 0.19 76 1009.3
20260510003308 53 204 2.0 3.0 0.00 0.00 0.19 76 1009.2
20260510002809 53 139 0.0 1.0 0.00 0.00 0.19 76 1009.1
20260510002308 53 220 1.0 2.0 0.00 0.00 0.19 77 1009.0
20260510001808 53 158 1.0 2.0 0.00 0.00 0.19 77 1008.9
20260510001308 53 117 0.0 0.0 0.00 0.00 0.19 77 1008.9
20260510000808 53 155 1.0 2.0 0.00 0.00 0.19 77 1009.0
20260510000311 53 171 1.0 2.0 0.00 0.00 0.19 77 1009.0
20260509235809 53 198 1.0 1.0 0.00 0.00 0.19 78 1009.0
20260509235308 53 168 0.0 0.0 0.00 0.00 0.19 77 1009.0
20260509234808 53 183 0.0 1.0 0.00 0.00 0.19 77 1008.9
20260509234310 53 157 0.0 0.0 0.00 0.00 0.19 77 1008.8
20260509233808 53 196 1.0 2.0 0.00 0.00 0.19 76 1008.7
20260509233308 53 191 2.0 2.0 0.00 0.00 0.19 75 1008.6
20260509232808 54 183 1.0 2.0 0.00 0.00 0.19 76 1008.5
20260509232308 54 162 2.0 3.0 0.00 0.00 0.19 75 1008.5
20260509231808 54 186 3.0 4.0 0.00 0.00 0.19 76 1008.5
20260509231309 53 172 2.0 3.0 0.00 0.00 0.19 77 1008.5
20260509230808 53 208 4.0 8.0 0.00 0.00 0.19 77 1008.5
20260509230308 53 175 2.0 2.0 0.00 0.00 0.19 78 1008.5
20260509225809 54 195 2.0 3.0 0.00 0.00 0.19 77 1008.5
20260509225308 54 172 3.0 4.0 0.00 0.00 0.19 78 1008.5
20260509224808 54 185 3.0 4.0 0.00 0.00 0.19 77 1008.5
20260509224308 53 132 2.0 3.0 0.00 0.00 0.19 78 1008.4
20260509223808 53 124 2.0 3.0 0.00 0.00 0.19 77 1008.5
20260509223308 53 165 2.0 4.0 0.00 0.00 0.19 78 1008.6
20260509222809 53 178 2.0 3.0 0.00 0.00 0.19 78 1008.6
20260509222309 53 212 2.0 2.0 0.00 0.00 0.19 80 1008.6
20260509221808 53 163 2.0 3.0 0.00 0.00 0.19 79 1008.6
20260509221308 52 175 4.0 4.0 0.00 0.00 0.19 79 1008.7
20260509220808 52 146 2.0 2.0 0.00 0.00 0.19 80 1008.7
20260509220309 52 111 3.0 4.0 0.00 0.00 0.19 80 1008.8
20260509215808 52 147 2.0 3.0 0.00 0.00 0.19 80 1008.9
20260509215309 52 178 3.0 3.0 0.00 0.00 0.19 81 1008.9
20260509214808 52 172 2.0 3.0 0.00 0.00 0.19 80 1008.9
20260509214309 52 184 3.0 4.0 0.00 0.00 0.19 80 1008.9
20260509213809 52 176 1.0 3.0 0.00 0.00 0.19 81 1009.0
20260509213308 52 96 2.0 2.0 0.00 0.00 0.19 81 1009.0
20260509212808 52 206 2.0 3.0 0.00 0.00 0.19 81 1009.1
20260509212308 51 166 3.0 4.0 0.00 0.00 0.19 81 1009.2
20260509211808 51 197 1.0 3.0 0.00 0.00 0.19 81 1009.2
20260509211310 51 163 2.0 3.0 0.00 0.00 0.19 82 1009.3
20260509210808 51 213 3.0 4.0 0.00 0.00 0.19 82 1009.3
20260509210308 51 197 3.0 3.0 0.00 0.00 0.19 83 1009.4
20260509205808 51 210 2.0 4.0 0.00 0.00 0.19 82 1009.4
20260509205308 51 149 2.0 3.0 0.00 0.00 0.19 83 1009.5
20260509204808 51 84 2.0 3.0 0.00 0.00 0.19 83 1009.6
20260509204308 51 199 3.0 3.0 0.00 0.00 0.19 84 1009.6
20260509203809 51 200 1.0 2.0 0.00 0.00 0.19 83 1009.6
20260509203308 50 168 3.0 3.0 0.00 0.00 0.19 83 1009.7
20260509202810 50 216 3.0 4.0 0.00 0.00 0.19 85 1009.7
20260509202309 50 122 1.0 2.0 0.00 0.00 0.19 85 1009.8
20260509201809 50 218 3.0 5.0 0.00 0.00 0.19 84 1009.8
20260509201308 50 199 2.0 3.0 0.00 0.00 0.19 85 1009.9
20260509200809 50 168 2.0 3.0 0.00 0.00 0.19 85 1009.9
20260509200309 50 162 3.0 4.0 0.00 0.00 0.19 84 1010.0
20260509195808 50 131 2.0 3.0 0.01 0.00 0.19 85 1010.0
20260509195309 50 185 3.0 5.0 0.01 0.00 0.19 84 1010.0
20260509194808 50 180 3.0 3.0 0.01 0.00 0.19 84 1010.0
20260509194309 50 162 2.0 2.0 0.02 0.00 0.19 84 1009.9
20260509193808 50 107 2.0 3.0 0.02 0.00 0.19 85 1009.9
20260509193308 50 181 3.0 3.0 0.03 0.00 0.19 85 1010.0
20260509192809 50 151 3.0 4.0 0.03 0.00 0.19 86 1009.9
20260509192309 50 175 2.0 3.0 0.03 0.00 0.19 85 1009.9
20260509191809 50 163 2.0 3.0 0.04 0.00 0.19 87 1010.0
20260509191308 50 187 2.0 3.0 0.04 0.00 0.19 85 1010.0
20260509190808 50 160 2.0 2.0 0.04 0.00 0.19 86 1010.1
20260509190308 50 139 1.0 2.0 0.04 0.00 0.19 86 1010.1
20260509185808 50 156 2.0 3.0 0.04 0.00 0.19 86 1010.2
20260509185310 50 200 2.0 2.0 0.04 0.00 0.18 87 1010.2
20260509184808 50 173 2.0 2.0 0.04 0.00 0.18 86 1010.2
20260509184308 50 224 2.0 3.0 0.04 0.00 0.17 86 1010.2
20260509183809 50 221 2.0 2.0 0.03 0.00 0.17 87 1010.3
20260509183308 50 208 2.0 2.0 0.03 0.00 0.16 85 1010.3
20260509182809 50 214 2.0 2.0 0.03 0.00 0.16 85 1010.3
20260509182308 50 179 2.0 3.0 0.03 0.00 0.16 84 1010.3
20260509181808 50 132 2.0 2.0 0.03 0.00 0.15 85 1010.3
20260509181308 50 191 3.0 4.0 0.03 0.00 0.15 85 1010.3
20260509180808 50 196 2.0 3.0 0.02 0.00 0.15 85 1010.3
20260509180308 50 200 2.0 4.0 0.02 0.00 0.14 84 1010.3
20260509175808 49 194 2.0 3.0 0.02 0.00 0.14 84 1010.3
20260509175308 49 209 2.0 3.0 0.02 0.00 0.14 84 1010.3
20260509174808 49 181 2.0 4.0 0.01 0.00 0.13 84 1010.3
20260509174309 50 139 2.0 2.0 0.01 0.00 0.13 84 1010.3
20260509173809 49 152 2.0 3.0 0.01 0.00 0.13 84 1010.3
20260509173309 49 184 4.0 6.0 0.01 0.00 0.13 84 1010.3
20260509172808 49 133 2.0 3.0 0.01 0.00 0.13 84 1010.4
20260509172317 49 43 0.0 1.0 0.01 0.00 0.12 85 1010.4
20260509171808 49 154 1.0 2.0 0.01 0.00 0.12 85 1010.6
20260509171309 49 207 1.0 3.0 0.01 0.00 0.12 85 1010.7
20260509170809 49 175 0.0 1.0 0.01 0.00 0.12 84 1010.8
20260509170308 49 202 4.0 6.0 0.01 0.00 0.12 84 1010.8
20260509165808 49 265 2.0 4.0 0.01 0.00 0.12 85 1010.8
20260509165313 49 177 0.0 1.0 0.01 0.00 0.12 84 1010.9
20260509164808 49 279 1.0 2.0 0.01 0.00 0.12 85 1010.9
20260509164308 49 143 2.0 2.0 0.02 0.00 0.12 85 1011.0
20260509163808 48 206 1.0 2.0 0.02 0.00 0.11 86 1011.2
20260509163309 48 218 2.0 3.0 0.02 0.00 0.11 87 1011.2
20260509162808 48 224 3.0 3.0 0.02 0.00 0.11 87 1011.3
20260509162309 48 0 0.0 0.0 0.02 0.00 0.11 87 1011.4
20260509161808 48 106 1.0 2.0 0.02 0.00 0.11 87 1011.4
20260509161309 48 171 1.0 1.0 0.02 0.00 0.11 87 1011.5
20260509160809 48 109 1.0 2.0 0.02 0.00 0.11 87 1011.6
20260509160310 48 174 2.0 2.0 0.02 0.00 0.11 86 1011.7
20260509155808 48 117 2.0 3.0 0.02 0.00 0.11 87 1011.8
20260509155308 48 209 2.0 2.0 0.02 0.00 0.10 87 1011.8
20260509154809 48 187 0.0 0.0 0.03 0.00 0.10 86 1011.8
20260509154308 48 101 1.0 1.0 0.02 0.00 0.10 87 1011.8
20260509153808 48 204 2.0 2.0 0.02 0.00 0.10 86 1011.9
20260509153311 48 168 2.0 3.0 0.02 0.00 0.09 86 1012.0
20260509152809 48 145 1.0 2.0 0.02 0.00 0.09 85 1012.0
20260509152309 48 212 2.0 3.0 0.02 0.00 0.09 85 1012.0
20260509151808 48 146 0.0 0.0 0.02 0.00 0.09 86 1012.0
20260509151308 48 0 0.0 0.0 0.05 0.00 0.08 86 1012.0
20260509150808 48 112 0.0 1.0 0.06 0.00 0.08 86 1012.0
20260509150309 48 0 0.0 0.0 0.06 0.00 0.08 87 1012.0
20260509145808 48 0 0.0 0.0 0.06 0.00 0.08 86 1012.0
20260509145308 48 182 1.0 2.0 0.06 0.00 0.07 84 1012.0
20260509144809 48 230 1.0 2.0 0.07 0.00 0.07 84 1012.0
20260509144308 48 0 0.0 0.0 0.07 0.00 0.07 84 1012.1
20260509143808 48 48 1.0 2.0 0.06 0.00 0.07 84 1012.0
20260509143309 48 100 1.0 2.0 0.06 0.00 0.07 84 1012.0
20260509142808 48 96 2.0 2.0 0.05 0.00 0.06 84 1012.0
20260509142308 47 212 2.0 3.0 0.05 0.00 0.06 84 1012.0
20260509141808 47 0 0.0 0.0 0.03 0.00 0.06 83 1012.0
20260509141308 47 191 0.0 0.0 0.03 0.00 0.05 82 1012.0
20260509140808 47 178 2.0 2.0 0.01 0.00 0.03 81 1012.0
20260509140308 47 111 0.0 1.0 0.01 0.00 0.02 81 1012.0
20260509135808 47 182 2.0 2.0 0.01 0.00 0.02 79 1012.0
20260509135308 48 162 0.0 0.0 0.00 0.00 0.01 81 1012.0
20260509134808 48 170 1.0 2.0 0.00 0.00 0.01 78 1012.0
20260509134308 48 196 2.0 2.0 0.00 0.00 0.00 76 1012.0
20260509133809 48 172 1.0 2.0 0.00 0.00 0.00 75 1012.0
20260509133308 49 250 2.0 3.0 0.00 0.00 0.00 73 1012.0
20260509132808 49 187 1.0 2.0 0.00 0.00 0.00 73 1012.0
20260509132308 49 189 2.0 2.0 0.00 0.00 0.00 71 1012.0
20260509131808 49 119 2.0 2.0 0.00 0.00 0.00 70 1012.0
20260509131308 49 171 2.0 3.0 0.00 0.00 0.00 68 1012.0
20260509130808 48 201 3.0 4.0 0.00 0.00 0.00 70 1012.0
20260509130308 48 184 2.0 2.0 0.00 0.00 0.00 68 1012.0
20260509125808 47 213 2.0 3.0 0.00 0.00 0.00 72 1012.0
20260509125309 47 287 1.0 2.0 0.00 0.00 0.00 73 1012.0
20260509124808 47 0 0.0 0.0 0.00 0.00 0.00 79 1012.0
20260509124309 47 183 1.0 2.0 0.00 0.00 0.00 77 1012.1
20260509123808 48 179 1.0 2.0 0.00 0.00 0.00 77 1012.1
20260509123308 48 151 1.0 2.0 0.00 0.00 0.00 75 1012.1
20260509122810 47 0 0.0 0.0 0.00 0.00 0.00 77 1012.1
20260509122308 47 0 0.0 0.0 0.00 0.00 0.00 69 1012.1
20260509121808 46 0 0.0 0.0 0.00 0.00 0.00 70 1012.2
20260509121308 46 210 2.0 2.0 0.00 0.00 0.00 73 1012.3
20260509120808 46 228 2.0 3.0 0.00 0.00 0.00 72 1012.3
20260509120316 45 311 0.0 1.0 0.00 0.00 0.00 70 1012.4
20260509115808 46 245 1.0 2.0 0.00 0.00 0.00 74 1012.3
20260509115314 47 202 2.0 3.0 0.00 0.00 0.00 71 1012.3
20260509114810 46 219 0.0 1.0 0.00 0.00 0.00 64 1012.4
20260509114309 45 127 1.0 1.0 0.00 0.00 0.00 64 1012.3
20260509113809 44 10 1.0 2.0 0.00 0.00 0.00 65 1012.3
20260509113309 42 224 1.0 2.0 0.00 0.00 0.00 75 1012.3
20260509112809 40 326 2.0 3.0 0.00 0.00 0.00 78 1012.3
20260509112308 39 357 2.0 2.0 0.00 0.00 0.00 80 1012.2
20260509111808 37 0 0.0 2.0 0.00 0.00 0.00 84 1012.2